TimeCDT,TemperatureF,Dew PointF,Humidity,Sea Level PressureIn,VisibilityMPH,Wind Direction,Wind SpeedMPH,Gust SpeedMPH,PrecipitationIn,Events,Conditions,WindDirDegrees,DateUTC
12:53 AM,81.0,75.9,85,29.82,10.0,SW,6.9,-,N/A,,Clear,220,2013-06-29 05:53:00
1:53 AM,81.0,77.0,88,29.81,10.0,SW,6.9,-,N/A,,Partly Cloudy,230,2013-06-29 06:53:00
2:53 AM,82.0,77.0,85,29.80,10.0,WSW,8.1,-,N/A,,Mostly Cloudy,240,2013-06-29 07:53:00
3:53 AM,81.0,77.0,88,29.79,10.0,WSW,9.2,-,N/A,,Mostly Cloudy,240,2013-06-29 08:53:00
4:53 AM,81.0,77.0,88,29.78,10.0,WSW,11.5,-,N/A,,Mostly Cloudy,240,2013-06-29 09:53:00
5:19 AM,80.6,77.0,89,29.79,10.0,WSW,5.8,-,N/A,,Mostly Cloudy,250,2013-06-29 10:19:00
5:31 AM,80.6,77.0,89,29.79,10.0,WSW,10.4,-,N/A,,Mostly Cloudy,240,2013-06-29 10:31:00
5:47 AM,82.4,77.0,84,29.81,10.0,West,8.1,-,N/A,,Mostly Cloudy,280,2013-06-29 10:47:00
5:53 AM,81.0,77.0,88,29.81,6.0,West,8.1,-,0.01,Rain,Heavy Rain,280,2013-06-29 10:53:00
5:59 AM,80.6,77.0,89,29.80,2.5,West,10.4,-,0.08,Rain,Heavy Rain,270,2013-06-29 10:59:00
6:07 AM,80.6,77.0,89,29.81,3.0,WNW,8.1,-,0.09,Rain,Light Rain,290,2013-06-29 11:07:00
6:15 AM,80.6,75.2,84,29.81,10.0,WNW,8.1,-,0.09,,Overcast,290,2013-06-29 11:15:00
6:53 AM,80.1,73.9,81,29.81,10.0,Calm,Calm,-,0.09,Rain,Light Rain,0,2013-06-29 11:53:00
7:02 AM,80.6,73.4,79,29.82,10.0,West,3.5,-,N/A,,Overcast,280,2013-06-29 12:02:00
7:53 AM,81.0,75.9,85,29.82,10.0,WSW,6.9,-,N/A,,Mostly Cloudy,240,2013-06-29 12:53:00
8:53 AM,82.0,75.9,82,29.82,10.0,WSW,8.1,-,N/A,,Scattered Clouds,250,2013-06-29 13:53:00
9:53 AM,82.9,75.0,77,29.82,10.0,SW,6.9,-,N/A,,Partly Cloudy,220,2013-06-29 14:53:00
10:48 AM,80.6,75.2,84,29.82,10.0,SSE,9.2,-,N/A,,Mostly Cloudy,160,2013-06-29 15:48:00
10:53 AM,80.1,75.9,87,29.82,10.0,South,9.2,-,N/A,,Scattered Clouds,170,2013-06-29 15:53:00
11:00 AM,80.6,75.2,84,29.82,10.0,SSE,9.2,-,N/A,,Mostly Cloudy,160,2013-06-29 16:00:00
11:53 AM,82.0,75.0,79,29.82,10.0,South,8.1,-,N/A,,Mostly Cloudy,180,2013-06-29 16:53:00
12:53 PM,84.9,75.9,74,29.80,10.0,SSW,6.9,-,N/A,,Clear,200,2013-06-29 17:53:00
1:53 PM,90.0,75.9,63,29.78,10.0,SW,6.9,-,N/A,,Scattered Clouds,220,2013-06-29 18:53:00
2:53 PM,91.9,73.0,54,29.75,10.0,SW,5.8,-,N/A,,Clear,220,2013-06-29 19:53:00
3:53 PM,93.0,72.0,50,29.73,10.0,Calm,Calm,-,N/A,,Clear,0,2013-06-29 20:53:00
4:53 PM,95.0,71.1,46,29.71,10.0,NW,9.2,-,N/A,,Clear,320,2013-06-29 21:53:00
5:53 PM,90.0,75.0,61,29.70,10.0,NE,5.8,-,N/A,,Mostly Cloudy,40,2013-06-29 22:53:00
6:15 PM,87.8,75.2,66,29.72,9.0,North,17.3,-,0.01,Rain-Thunderstorm,Light Rain,360,2013-06-29 23:15:00
6:53 PM,81.0,72.0,74,29.72,10.0,Calm,Calm,-,0.02,,Partly Cloudy,0,2013-06-29 23:53:00
7:32 PM,80.6,75.2,84,29.70,1.8,Variable,3.5,-,0.06,Rain,Heavy Rain,0,2013-06-30 00:32:00
7:40 PM,80.6,75.2,84,29.71,4.0,Calm,Calm,-,0.06,Rain,Light Rain,0,2013-06-30 00:40:00
7:53 PM,80.1,75.9,87,29.72,10.0,Calm,Calm,-,0.06,,Mostly Cloudy,0,2013-06-30 00:53:00
8:53 PM,79.0,73.9,84,29.75,10.0,Calm,Calm,-,N/A,,Overcast,0,2013-06-30 01:53:00
9:53 PM,80.1,73.9,81,29.76,10.0,South,4.6,-,N/A,,Mostly Cloudy,190,2013-06-30 02:53:00
10:53 PM,78.1,71.1,79,29.77,10.0,SSW,3.5,-,N/A,,Mostly Cloudy,210,2013-06-30 03:53:00
11:53 PM,80.1,72.0,76,29.77,10.0,Calm,Calm,-,N/A,,Clear,0,2013-06-30 04:53:00